Location: Maynard F. Jordan Observatory
(44.9000°N, 68.6700°W)
Time: 14:27:01
(UTC-04:00)

Daily predictions for brighter satellites

Satellite Brightness Start Highest point End
(mag) Time Altitude Azimuth Time Altitude Azimuth Time Altitude Azimuth
Cosmos 44 Rocket 3.8 20:29:52 10° NW 20:35:00 65° WSW 20:40:09 10° SSE
Tsikada Rocket 4.3 20:29:27 10° N 20:35:45 56° ENE 20:42:02 10° SSE
Cosmos 2016 Rocket 4.0 20:29:52 10° S 20:35:56 76° E 20:42:05 10° N
Cosmos 1939 Rocket 3.6 20:32:09 10° S 20:36:11 58° W 20:40:17 10° NNW
Cosmos 1697 Rocket 3.2 20:31:50 10° NNW 20:37:28 64° WSW 20:43:02 10° S
Spot 2 Rocket 3.5 20:33:39 10° SSE 20:38:42 82° ENE 20:43:46 10° NNW
Okean 1 3.9 20:35:47 10° SSE 20:39:33 38° E 20:43:20 10° NNE
Meteor 1-18 Rocket 4.5 20:39:36 10° S 20:45:16 57° E 20:51:04 10° NNE
Cosmos 1725 Rocket 4.0 20:39:24 10° S 20:45:30 67° E 20:51:40 10° NNE
Cosmos 2360 Rocket 4.1 20:42:04 10° N 20:45:47 17° NE 20:49:29 10° E
Lacrosse 5 rocket 3.8 20:42:41 10° NW 20:45:50 19° N 20:48:53 10° NE
USA 238 DEB 3.7 20:41:27 10° SSW 20:48:14 69° ESE 20:55:09 10° NE
USA 238 3.7 20:41:34 10° SSW 20:48:20 68° ESE 20:55:15 10° NE
Cosmos 1500 3.5 20:45:12 10° NNW 20:49:03 72° W 20:52:53 10° S
Cosmos 1980 Rocket 2.3 20:43:35 10° NNW 20:49:16 87° WSW 20:54:57 10° SSE
Resurs 1-3 4.4 20:45:45 10° S 20:50:01 53° W 20:54:21 10° NNW
Shenzhou-11 Module 2.3 20:49:15 10° WSW 20:52:06 44° SSE 20:54:58 10° E
Cosmos 1570 Rocket 4.4 20:48:39 10° S 20:53:42 46° ESE 20:58:49 10° NNE
BREEZE-M R/B 2.9 20:50:16 10° SW 20:54:27 39° SSE 20:57:04 10° E
ISS -2.8 20:53:09 10° SSW 20:55:55 26° SE 20:58:43 10° E
SL-08 RB Rocket 4.4 20:51:44 10° SE 20:55:56 40° ENE 21:00:12 10° N
Cosmos 1812 4.2 20:57:57 10° SSW 21:01:35 39° WNW 21:05:14 10° N
Cosmos 1666 3.0 21:00:17 10° N 21:04:06 52° ENE 21:07:35 12° SSE
Cosmos 1743 3.0 21:01:36 10° N 21:05:22 49° ENE 21:08:39 13° SSE
Cosmos 1833 Rocket 4.1 21:00:59 10° SW 21:06:20 43° WNW 21:11:42 10° NNE
H-2A R/B 2.2 21:03:35 11° SSE 21:08:11 55° ENE 21:13:05 10° N
Cosmos 304 Rocket 3.7 21:05:34 10° S 21:10:21 70° ESE 21:15:10 10° NNE
DNEPR-1 R/B 3.6 21:07:19 10° SSW 21:11:30 64° ESE 21:16:16 10° NE
Helios 1B rocket 4.1 21:12:13 10° NE 21:15:00 17° E 21:16:25 15° ESE
Cosmos 1455 Rocket 4.1 21:12:22 10° NNE 21:16:14 30° ENE 21:18:58 16° SE
Abrixas rocket 3.7 21:14:06 10° S 21:15:56 17° SSE 21:15:56 17° SSE
Cosmos 1340 Rocket 4.3 21:15:58 16° SE 21:17:48 21° E 21:20:54 10° NE
ATLAS CENTAUR R/B 2.5 21:14:34 10° NW 21:18:53 45° WSW 21:23:09 11° S
USA 234 3.5 21:13:05 10° NE 21:19:39 78° NW 21:26:13 10° WSW
Cosmos 2208 Rocket 3.9 21:15:00 10° S 21:20:07 68° ESE 21:25:17 10° NNE
Cosmos 1898 Rocket 3.6 21:15:41 10° NNW 21:20:59 69° ENE 21:25:14 16° SSE
Iridium 2 4.0 21:18:48 14° SSE 21:21:54 50° E 21:25:37 10° NNE
NOSS 3-2 (A) 3.4 21:16:19 10° SSW 21:22:09 69° ESE 21:28:41 10° NE
Okean 1 Rocket 3.8 21:20:13 10° NNW 21:24:27 52° W 21:28:40 10° S
NOSS 3-2 (C) 3.5 21:19:50 10° SSW 21:25:32 53° ESE 21:31:51 10° NE
Cosmos 1242 Rocket 2.5 21:22:03 10° N 21:25:45 75° ENE 21:28:22 18° SSE
deb Kosmos-1763 4.4 21:23:06 11° S 21:26:30 44° ESE 21:30:03 10° NNE
Cosmos 1975 Rocket 3.0 21:22:44 10° S 21:27:02 67° E 21:31:20 10° NNE
Cosmos 1378 Rocket 4.2 21:24:23 10° SSW 21:28:37 55° WNW 21:32:52 10° N
Cosmos 2233 Rocket 4.0 21:23:24 10° S 21:29:33 90° W 21:35:47 10° N
Resurs 01 Rocket 3.9 21:28:36 10° SW 21:31:58 21° W 21:35:21 10° NW
ERS-1 Rocket 3.0 21:28:00 16° SSE 21:32:03 76° ENE 21:37:05 10° N
MetOp-A 4.3 21:27:26 11° S 21:32:38 74° WSW 21:38:01 10° NNW
Cosmos 1975 3.4 21:30:28 10° NNW 21:34:27 55° W 21:38:14 11° S
Tiangong 2 2.4 21:32:19 10° SSW 21:34:28 23° S 21:34:28 23° S
Cosmos 2082 Rocket 4.3 21:31:40 10° WSW 21:36:36 30° NW 21:41:36 10° N
Cosmos 2322 Rocket 2.2 21:32:28 10° NNW 21:38:07 76° ENE 21:42:01 21° SSE
COSMOS 2487 4.4 21:35:35 10° SW 21:38:45 31° WNW 21:41:56 10° N
Meteor 1-29 4.5 21:37:00 10° NE 21:39:38 20° E 21:39:54 20° E
Cosmos 1544 Rocket 3.7 21:38:44 10° N 21:43:06 58° E 21:45:37 24° SSE
SL-16 R/B 2.2 21:38:52 10° NNW 21:44:35 89° ENE 21:48:26 21° SSE
Cosmos 2150 Rocket 4.3 21:41:21 10° NNW 21:46:43 60° ENE 21:49:56 24° SE
Cosmos 990 Rocket 4.0 21:44:58 10° NNW 21:50:13 88° ENE 21:53:30 23° SSE
Timation 2 Rocket 3.8 21:45:53 10° SSW 21:51:51 84° ESE 21:57:57 10° NNE
ARGOS 4.0 21:49:16 10° S 21:54:21 48° W 21:59:35 10° NNW
SPOT 5 2.6 21:54:03 26° SSE 21:56:29 80° ENE 22:01:01 10° NNW
Meteor 1-19 Rocket 4.5 21:51:01 10° SSW 21:56:55 76° WNW 22:02:52 10° N
CENTAUR R/B 2.8 21:55:22 15° S 21:59:54 43° ESE 22:06:14 10° NE
Cosmos 1536 Rocket 3.9 21:58:29 29° SSE 22:00:17 47° E 22:04:34 10° NNE
CZ-2C R/B 4.0 21:59:59 23° ESE 22:02:40 38° ENE 22:07:45 10° N
SJ 16-02 2.4 21:59:13 10° N 22:03:15 33° ENE 22:05:00 24° ESE
Landsat 7 3.8 22:00:47 28° SSE 22:03:16 71° ENE 22:08:02 10° N
Cosmos 2298 Rocket 4.0 22:00:38 10° NNW 22:05:58 86° WSW 22:08:51 28° SSE
Helios 1A 3.0 22:03:55 27° S 22:06:05 73° WSW 22:10:14 10° NNW
Cosmos 2034 Rocket 4.1 22:04:53 24° SSE 22:08:33 58° E 22:14:34 10° NNE
ATLAS 3B R/B 3.6 22:03:03 10° WSW 22:10:00 52° NW 22:16:43 10° NNE
Cosmos 1513 Rocket 4.4 22:07:10 21° S 22:11:24 75° E 22:17:33 10° NNE
Cosmos 1464 Rocket 4.0 22:09:53 17° S 22:14:54 87° E 22:21:20 10° N
USA 32 4.4 22:11:22 10° NNW 22:16:33 61° W 22:20:04 20° SSW
SL-19 R/B 4.5 22:17:40 28° SSE 22:21:04 90° WNW 22:27:33 10° NNW
Terra 1.8 22:20:00 36° SSE 22:21:55 72° ENE 22:26:41 10° N
Cosmos 2084 3.2 22:18:12 10° SW 22:22:30 85° SE 22:26:36 10° NE
Cosmos 1937 Rocket 4.2 22:20:19 10° NNW 22:25:13 46° WSW 22:27:55 24° SSW
Lacrosse 5 rocket 2.2 22:21:52 10° NW 22:26:02 44° NNE 22:27:54 26° E
Aureole 2 Rocket 2.1 22:23:36 10° NNW 22:26:39 67° WSW 22:26:40 67° WSW
Meteor 1-23 Rocket 4.1 22:24:26 26° S 22:27:44 84° E 22:33:20 10° NNE
Shenzhou-11 Module 3.1 22:25:04 10° W 22:26:59 34° WSW 22:26:59 34° WSW
Cosmos 2360 Rocket 2.1 22:24:57 10° NNW 22:30:38 87° ENE 22:33:03 36° SSE
ISS -3.0 22:29:03 10° WSW 22:32:15 51° NNW 22:35:28 10° NE
CARTOSAT-1 3.6 22:31:49 42° S 22:33:14 77° WSW 22:37:34 10° NNW
CZ-4C R/B 3.6 22:26:52 10° NNW 22:33:34 46° NE 22:39:07 18° ESE
YAOGAN 11 4.1 22:34:20 45° SSE 22:35:39 80° ENE 22:40:10 10° NNW
Cosmos 2219 Rocket 3.3 22:32:16 10° N 22:37:18 33° NE 22:40:01 22° E
Cosmos 1763 Rocket 4.3 22:35:09 10° SW 22:40:18 50° WNW 22:45:28 10° NNE
Cosmos 841 Rocket 3.8 22:37:55 16° SSW 22:42:03 68° WNW 22:47:20 10° NNE
Cosmos 2333 Rocket 3.4 22:37:50 10° N 22:42:57 33° NE 22:45:46 22° E
SPOT 1/Viking Rocket 4.4 22:40:44 23° SSW 22:43:29 41° W 22:48:23 10° NNW
Cosmos 540 Rocket 3.4 22:41:48 36° S 22:43:55 76° ESE 22:49:06 10° NNE
Okean 2 3.3 22:45:24 57° S 22:46:12 83° E 22:50:23 10° N
CZ-2C R/B 3.0 22:40:51 10° NNE 22:46:21 53° E 22:47:57 40° SSE
COSMOS 2428 3.2 22:40:59 10° NNW 22:46:33 51° ENE 22:48:47 33° ESE
H-2A R/B 4.1 22:44:35 10° SW 22:48:00 19° W 22:51:28 10° NW
Helios 1B rocket 3.4 22:46:33 10° N 22:50:30 44° WNW 22:52:46 22° SW
Cosmos 1606 Rocket 4.3 22:46:39 10° N 22:50:50 39° ENE 22:51:27 37° E
Cosmos 1340 Rocket 4.4 22:51:32 16° SW 22:54:05 31° WNW 22:57:45 10° N
IGS 5A 4.3 22:53:25 35° SW 22:54:31 43° W 22:58:30 10° NNW
Cosmos 1356 Rocket 3.3 22:55:31 64° SSE 22:56:06 78° E 23:00:24 10° NNE
Cosmos 1833 4.3 22:53:11 20° SSW 22:57:15 76° WNW 23:02:58 10° NNE
Cosmos 372 Rocket 3.9 22:54:53 10° NNW 23:00:03 81° WSW 23:01:22 51° S
Cosmos 1025 Rocket 2.9 22:59:55 59° SSW 23:00:44 86° WNW 23:05:08 10° N
SAR-Lupe-4 3.5 23:07:07 78° NNE 23:07:07 78° NNE 23:10:33 10° NNW
Cosmos 1544 3.1 23:03:30 10° N 23:07:05 74° NE 23:07:05 74° NE
BREEZE M DEB (TANK) 4.5 23:09:11 10° WNW 23:13:02 17° WSW 23:13:13 17° WSW
Cosmos 2322 3.9 23:07:50 10° NNW 23:13:30 60° WSW 23:15:05 44° SSW
Cosmos 1125 Rocket 3.6 23:11:04 10° NNW 23:16:17 65° WSW 23:17:27 50° SSW
BREEZE-M R/B 4.1 23:15:06 10° WNW 23:16:40 24° NW 23:16:40 24° NW
Cosmos 2297 Rocket 3.8 23:18:38 18° E 23:18:38 18° E 23:22:05 10° ENE
Okean 1-7 Rocket 3.5 23:18:10 70° SSE 23:18:40 83° E 23:23:15 10° N
Intercosmos 25 4.0 23:19:41 51° ESE 23:19:50 52° E 23:23:31 10° NNE
Cosmos 2227 Rocket 3.6 23:21:10 22° E 23:21:10 22° E 23:25:07 10° NE
H-2A R/B 3.5 23:20:32 26° E 23:21:12 27° ENE 23:24:50 10° N
Cosmos 2322 Rocket 4.2 23:18:06 10° WNW 23:21:27 16° W 23:23:50 13° SW
Meteor 1-22 Rocket 4.0 23:16:11 10° N 23:21:38 78° E 23:22:45 56° SSE
Cosmos 1092 Rocket 4.2 23:16:05 10° NNW 23:22:23 68° W 23:24:43 40° SSW
SAR-Lupe-1 4.4 23:25:23 63° NW 23:25:23 63° NW 23:28:34 10° NNW
Cosmos 1892 Rocket 3.7 23:25:27 58° E 23:25:27 58° E 23:29:38 10° NNE
Cosmos 2237 Rocket 3.2 23:20:13 10° NNW 23:25:32 39° NE 23:27:49 27° E
Cosmos 1066 Rocket 4.2 23:24:22 42° SSW 23:26:07 69° WNW 23:31:33 10° N
SL-16 R/B 4.4 23:25:07 10° WNW 23:27:49 14° W 23:30:19 10° WSW
Cosmos 1766 3.3 23:27:15 10° N 23:31:01 78° NNE 23:31:01 78° NNE
SL-19 R/B 4.4 23:29:45 10° NNE 23:36:00 69° ESE 23:37:29 51° SSE
Cosmos 1655 Rocket 4.1 23:33:10 10° N 23:39:35 72° E 23:41:22 49° SSE
DELTA 2 DEB (DPAF) 4.3 23:41:12 59° E 23:41:29 60° ENE 23:45:54 10° N
SJ 16-02 2.8 23:38:02 10° NW 23:41:41 25° W 23:42:00 25° WSW
CZ-2C R/B 4.3 23:41:02 27° SW 23:42:34 31° W 23:47:26 10° NNW
CZ-4B R/B 4.0 23:38:52 10° NNE 23:43:40 42° E 23:43:50 42° ESE
ADEOS Rocket 3.4 23:38:38 10° NNE 23:43:51 38° E 23:44:21 38° ESE
Cosmos 2219 3.1 23:44:28 57° S 23:45:40 79° ESE 23:51:27 10° NNE
Cosmos 1726 Rocket 3.7 23:43:52 10° NNW 23:48:13 62° W 23:48:18 62° WSW
Mayak -0.9 23:46:18 10° NNE 23:50:06 54° ENE 23:50:06 54° ENE
CENTAUR R/B 3.6 23:44:37 10° WSW 23:50:32 45° NW 23:57:21 10° NNE
Cosmos 2058 Rocket 3.0 23:47:22 10° N 23:51:55 82° W 23:52:00 81° WSW
